Starlink 30818

operational
NORAD ID: 58217 Int'l Des: 2023-170 Owner: SPXS Country: US Constellation: starlink
LEOCIRCULAR

Über Starlink 30818

Beschreibung wird geladen...

Live-Position

3D-Globus wird geladen...

Nächste Überflüge

Höhenverlauf

Altitude vs Time

uPlot chart will show altitude changes over time

Zweizeiliger Elementsatz

1 58217U 23170M 25258.20182431 .00000780 00000-0 72767-4 0 9997
2 58217 43.0047 69.2919 0001386 266.8003 93.2680 15.02540199103886
Epoch: 15. Sept. 2025 • Age: 9 hours

Aktueller Status

Höhe 563.8 km
Geschwindigkeit 7.58 km/s
Subsatellitenpunkt -22.57°S, 167.93°W
Startdatum 4. Nov. 2023
Alter 1.8 years
Typ internet

Technische Details

Klassifizierung Payload
Masse 730.00 kg
Trockenmasse 700.00 kg
Gesamtmasse 730.00 kg
Länge 0.30 m
Durchmesser 4.10 m
Spannweite 29.00 m
Form Box + pan
Hersteller SPXS
Bus-Typ Starlink V2M
Phasenstatus In Orbit
Besitzer/Staat SPXS/US

Große Konstellationen

Loading constellations...